Vorticity
15 15 7 6 4 4 3 5 6 4 1 6 6 4 4 3 2 2 2 3 4 5 4 4 4 4 4 3 3 4 4 5 5
4 4 10 15 11 5 5 2 1 3 7 4 2 4 6 5 4 5 4 2 2 2 3 4 5 4 4 3 4 4 4 5 6
3 4 3 5 7 12 13 6 5 4 1 0 3 5 4 3 5 6 5 5 5 4 3 4 4 4 3 3 4 4 4 4 5
3 3 2 2 3 5 7 11 14 7 6 7 5 3 2 1 2 5 3 5 6 6 6 4 4 3 3 3 3 3 3 3 5
1 3 4 2 2 3 3 5 7 11 12 7 2 3 4 8 8 5 2 5 5 3 7 8 7 5 4 4 3 2 3 3 4
6 6 1 1 4 3 3 4 4 4 6 8 9 10 1 1 -1 9 15 6 3 7 5 5 9 10 8 6 4 3 3 3 2
3 3 7 5 0 2 4 4 4 4 3 3 5 2 2 6 5 4 10 19 10 6 6 8 5 7 9 9 8 6 5 4 2
7 4 2 3 8 6 2 3 4 4 4 3 3 3 -3 3 0 2 2 4 13 13 7 5 7 5 7 9 9 8 8 6 3
7 10 12 10 6 3 3 6 5 3 3 3 4 5 2 3 2 1 2 4 2 14 12 8 5 3 5 5 6 8 9 9 7
3 3 4 4 7 10 8 6 4 5 4 3 3 3 4 3 3 3 3 3 4 7 15 10 6 6 6 4 5 4 6 6 7
3 2 2 3 4 5 5 7 9 8 5 6 5 3 3 3 3 3 3 4 4 4 7 13 9 5 3 3 3 6 7 3 4
6 6 6 5 3 3 3 4 6 5 9 9 4 6 5 4 3 5 3 5 4 3 9 9 12 7 4 7 3 3 6 6 6
7 6 6 6 6 6 5 5 3 2 6 4 10 8 4 6 5 3 3 4 2 4 1 6 8 6 7 7 8 5 5 7 7
3 3 5 5 3 4 6 6 6 4 3 3 4 5 9 8 4 4 6 2 3 2 1 1 8 7 10 11 8 11 10 8 7
12 12 12 12 14 12 8 4 4 7 6 3 2 4 4 5 10 7 5 7 4 5 4 -0 25 2 5 -5 7 5 10 10 10
7 7 7 6 5 6 8 11 9 7 7 7 4 3 4 5 3 4 9 7 5 9 0 10 -34 48 2 35 1 4 11 5 5
18 21 21 18 11 5 5 6 10 9 6 8 7 5 4 2 4 6 5 7 9 6 6 8 13 -5 9 10 -9 -7 -0 5 4
13 17 18 22 15 10 15 14 9 9 12 10 8 8 5 5 4 6 5 5 5 7 8 5 -1 7 14 -5 14 -11 2 18 -0
11 18 24 17 15 18 37 12 17 19 7 10 13 8 10 6 3 4 5 5 6 9 10 8 8 8 1 7 10 5 10 6 12
26 38 39 30 27 18 51 29 15 16 11 15 9 11 11 8 10 4 4 4 4 3 4 10 10 14 8 4 4 6 2 6 2
Height
5869 5869 5869 5868 5868 5868 5868 5867 5867 5866 5866 5866 5865 5865 5864 5863 5863 5863 5862 5861 5861 5860 5860 5859 5858 5857 5856 5855 5854 5853 5852 5850 5849
5868 5867 5867 5866 5865 5865 5865 5865 5865 5864 5863 5863 5862 5862 5862 5861 5860 5860 5860 5859 5858 5858 5857 5856 5856 5855 5854 5853 5852 5851 5850 5849 5847
5866 5865 5864 5864 5863 5863 5862 5861 5861 5861 5861 5861 5860 5859 5859 5859 5858 5857 5857 5856 5855 5854 5854 5854 5853 5852 5851 5850 5850 5848 5848 5847 5846
5863 5862 5861 5860 5860 5859 5859 5858 5857 5857 5856 5856 5856 5856 5856 5855 5855 5854 5854 5853 5852 5851 5851 5850 5850 5849 5849 5848 5847 5846 5845 5844 5844
5859 5858 5858 5857 5856 5856 5856 5855 5854 5853 5853 5852 5852 5851 5851 5851 5850 5850 5850 5849 5848 5848 5847 5847 5846 5846 5846 5845 5844 5843 5842 5842 5841
5854 5854 5853 5852 5852 5851 5851 5850 5849 5849 5848 5848 5847 5847 5847 5846 5846 5845 5844 5844 5844 5843 5843 5842 5842 5842 5842 5841 5841 5840 5839 5839 5838
5849 5849 5848 5847 5847 5846 5846 5845 5845 5844 5843 5843 5843 5843 5842 5841 5841 5840 5839 5838 5838 5838 5838 5838 5837 5837 5837 5837 5836 5836 5835 5835 5834
5844 5843 5842 5841 5840 5840 5840 5840 5839 5839 5838 5837 5836 5836 5836 5836 5835 5835 5834 5833 5832 5831 5832 5833 5833 5832 5832 5832 5832 5831 5831 5831 5830
5837 5837 5836 5835 5834 5834 5833 5833 5833 5832 5831 5831 5831 5830 5829 5829 5829 5829 5828 5828 5827 5826 5825 5826 5827 5827 5827 5827 5827 5826 5826 5826 5825
5832 5831 5830 5828 5827 5827 5826 5825 5825 5825 5824 5823 5823 5823 5823 5822 5822 5821 5821 5822 5821 5820 5819 5819 5820 5821 5821 5821 5821 5821 5821 5821 5821
5825 5824 5823 5822 5820 5819 5818 5817 5816 5816 5817 5816 5816 5815 5814 5814 5814 5815 5815 5814 5814 5814 5813 5813 5813 5814 5814 5814 5815 5815 5815 5815 5815
5815 5814 5813 5812 5811 5810 5810 5808 5807 5807 5807 5807 5807 5807 5806 5805 5805 5806 5807 5808 5807 5807 5807 5806 5806 5806 5807 5807 5807 5808 5808 5809 5809
5804 5802 5801 5800 5799 5798 5798 5798 5797 5796 5796 5796 5796 5797 5797 5797 5796 5797 5797 5798 5800 5799 5798 5798 5798 5799 5799 5799 5799 5800 5800 5801 5801
5790 5789 5788 5786 5784 5783 5784 5784 5783 5783 5783 5784 5784 5785 5786 5786 5786 5787 5788 5789 5789 5791 5791 5790 5790 5790 5791 5792 5792 5792 5792 5793 5794
5775 5773 5771 5769 5768 5767 5767 5767 5767 5769 5769 5768 5770 5772 5773 5775 5776 5776 5778 5780 5779 5780 5780 5780 5781 5781 5783 5784 5785 5785 5785 5786 5787
5762 5759 5757 5753 5752 5749 5748 5748 5748 5750 5753 5753 5754 5757 5760 5762 5764 5765 5767 5769 5770 5769 5771 5769 5770 5772 5773 5774 5777 5777 5776 5778 5779
5750 5746 5742 5737 5733 5729 5727 5727 5729 5730 5733 5735 5737 5741 5746 5750 5752 5754 5756 5757 5757 5759 5760 5762 5762 5762 5764 5765 5767 5768 5768 5769 5771
5736 5730 5723 5716 5709 5705 5702 5703 5706 5711 5714 5716 5720 5725 5730 5734 5738 5741 5743 5745 5745 5748 5751 5751 5753 5755 5756 5757 5757 5758 5759 5760 5761
5722 5714 5702 5692 5685 5679 5676 5677 5682 5688 5695 5698 5703 5708 5713 5717 5723 5728 5731 5733 5735 5736 5739 5742 5743 5743 5746 5747 5748 5748 5748 5749 5751
5711 5698 5682 5671 5664 5656 5648 5651 5658 5665 5673 5681 5686 5692 5698 5702 5706 5713 5718 5721 5724 5726 5725 5729 5732 5733 5735 5736 5738 5738 5738 5740 5740